Location: Newark
(51.0500°N, 12.4500°E)
Time: 16:02:33
(UTC+00:00)

N. Korean satellite - Visible Passes

Search period start: 28 January 2020 00:00
Search period end: 07 February 2020 00:00
Orbit: 454 x 507 km, 97.2° (Epoch: 28 January)

Date Brightness Start Highest point End Pass type
(mag) Time Alt. Az. Time Alt. Az. Time Alt. Az.
28 Jan 8.8 04:26:37 10° NE 04:29:44 27° E 04:32:53 10° SSE visible
28 Jan 7.5 06:00:01 10° N 06:03:05 27° WNW 06:06:11 10° SW visible
28 Jan 8.7 16:40:16 10° SSW 16:43:19 30° W 16:46:26 10° NNW visible
29 Jan 9.7 04:01:50 10° NE 04:04:02 15° E 04:06:15 10° SE visible
29 Jan 6.7 05:34:12 10° N 05:37:42 50° WNW 05:41:13 10° SSW visible
30 Jan 6.6 05:08:36 10° NNE 05:12:14 84° ESE 05:15:53 10° SSW visible
30 Jan 10.2 17:25:08 10° WSW 17:26:02 11° W 17:26:57 10° WNW visible
31 Jan 7.9 04:43:13 10° NNE 04:46:41 42° E 04:50:10 10° S visible
31 Jan 9.6 16:57:40 10° SW 17:00:16 20° W 17:02:55 10° NW visible
01 Feb 9.1 04:18:06 10° NE 04:21:02 23° E 04:24:00 10° SSE visible
01 Feb 7.3 05:51:13 10° N 05:54:29 33° WNW 05:57:47 10° SW visible
01 Feb 8.3 16:31:22 10° SSW 16:34:36 37° W 16:37:53 10° NNW visible
02 Feb 10.0 03:53:35 10° ENE 03:55:18 13° E 03:57:01 10° ESE visible
02 Feb 6.5 05:25:29 10° N 05:29:04 62° WNW 05:32:42 10° SSW visible
03 Feb 7.0 04:59:56 10° NNE 05:03:34 67° ESE 05:07:13 10° S visible
03 Feb 9.9 17:15:28 10° WSW 17:17:16 13° W 17:19:04 10° WNW visible
04 Feb 8.4 04:34:36 10° NNE 04:37:59 34° E 04:41:23 10° SSE visible
04 Feb 9.2 16:48:38 10° SSW 16:51:31 25° W 16:54:28 10° NW visible
05 Feb 9.5 04:09:37 10° NE 04:12:18 19° E 04:15:01 10° SE visible
05 Feb 7.0 05:42:24 10° N 05:45:52 40° WNW 05:49:20 10° SW visible
06 Feb 10.2 03:45:43 10° ENE 03:46:33 11° E 03:47:22 10° E visible
06 Feb 6.5 05:16:45 10° N 05:20:25 78° WNW 05:24:06 10° SSW visible
